Location: Ammerl�gen
(47.2167°N, 9.6000°E)
Time: 10:59:56
(UTC+00:00)

CZ-4 R/B DEB - Pass Details

Date: 19 October 2021
Orbit: 738 x 791 km, 98.5° (Epoch: 26 November)

Event Time Altitude Azimuth Distance (km) Brightness Sun altitude
Exits shadow 18:42:27 65° 124° (ESE) 812 ? -23.7°
Maximum altitude 18:43:02 74° 73° (ENE) 774 ? -23.8°
Drops below altitude 10° 18:47:58 10° 349° (N) 2,258 ? -24.7°
Sets 18:50:16 0° 348° (NNW) 3,187 ? -25.0°
